Hourly Weather Novyy Kyrlay

Today, 29 September, Tuesday

Time Temperature Precipitation Wind Pressure Humidity
00:00 +10°C° 0 mm 1 mps 760 mmHg 69%
01:00 +9°C° 0 mm 1 mps 760 mmHg 69%
02:00 +9°C° 0 mm 1 mps 760 mmHg 70%
03:00 +9°C° 0 mm 1 mps 760 mmHg 70%
04:00 +9°C° 0 mm 1 mps 760 mmHg 70%
05:00 +8°C° 0 mm 1 mps 760 mmHg 70%
06:00 +8°C° 0 mm 1 mps 760 mmHg 70%
07:00 +10°C° 0 mm 1 mps 760 mmHg 65%
08:00 +12°C° 0 mm 1 mps 760 mmHg 61%
09:00 +13°C° 0 mm 1 mps 760 mmHg 56%
10:00 +15°C° 0 mm 1 mps 760 mmHg 53%
11:00 +16°C° 0 mm 2 mps 760 mmHg 50%
12:00 +17°C° 0 mm 2 mps 760 mmHg 47%
13:00 +17°C° 0 mm 2 mps 760 mmHg 49%
14:00 +18°C° 0 mm 1 mps 760 mmHg 51%
15:00 +18°C° 0 mm 1 mps 760 mmHg 53%
16:00 +15°C° 0 mm 1 mps 759 mmHg 57%
17:00 +14°C° 0 mm 1 mps 759 mmHg 61%
18:00 +12°C° 0 mm 1 mps 759 mmHg 65%
19:00 +12°C° 0 mm 1 mps 759 mmHg 66%
20:00 +11°C° 0 mm 1 mps 759 mmHg 67%
21:00 +11°C° 0 mm 1 mps 759 mmHg 68%
22:00 +11°C° 0 mm 1 mps 759 mmHg 69%
23:00 +10°C° 0 mm 1 mps 758 mmHg 70%

Tomorrow, 30 September, Wednesday

Time Temperature Precipitation Wind Pressure Humidity
00:00 +10°C° 0 mm 1 mps 758 mmHg 71%
01:00 +10°C° 0 mm 1 mps 758 mmHg 72%
02:00 +10°C° 0 mm 1 mps 759 mmHg 73%
03:00 +10°C° 0 mm 1 mps 759 mmHg 74%
04:00 +8°C° 0 mm 2 mps 759 mmHg 75%
05:00 +8°C° 0 mm 2 mps 758 mmHg 76%
06:00 +8°C° 0 mm 2 mps 758 mmHg 77%
07:00 +10°C° 0 mm 2 mps 758 mmHg 74%
08:00 +12°C° 0 mm 2 mps 759 mmHg 71%
09:00 +13°C° 0 mm 2 mps 759 mmHg 68%
10:00 +15°C° 0 mm 2 mps 758 mmHg 66%
11:00 +16°C° 0 mm 2 mps 758 mmHg 63%
12:00 +17°C° 0 mm 3 mps 758 mmHg 61%
13:00 +17°C° 0 mm 3 mps 758 mmHg 63%
14:00 +17°C° 0 mm 3 mps 758 mmHg 64%
15:00 +17°C° 0 mm 3 mps 758 mmHg 65%
16:00 +15°C° 0 mm 2 mps 758 mmHg 71%
17:00 +14°C° 0 mm 2 mps 758 mmHg 77%
18:00 +13°C° 0 mm 2 mps 757 mmHg 83%
19:00 +12°C° 0 mm 2 mps 758 mmHg 85%
20:00 +12°C° 0 mm 2 mps 758 mmHg 86%
21:00 +10°C° 0 mm 2 mps 758 mmHg 88%
22:00 +10°C° 0 mm 2 mps 758 mmHg 88%
23:00 +10°C° 0 mm 2 mps 758 mmHg 88%

Day after tomorrow, 1 October, Thursday

Time Temperature Precipitation Wind Pressure Humidity
00:00 +9°C° 0 mm 2 mps 758 mmHg 88%
01:00 +9°C° 0 mm 2 mps 758 mmHg 88%
02:00 +9°C° 0 mm 2 mps 758 mmHg 88%
03:00 +9°C° 0 mm 2 mps 758 mmHg 88%
04:00 +9°C° 0 mm 2 mps 758 mmHg 88%
05:00 +8°C° 0 mm 2 mps 758 mmHg 88%
06:00 +8°C° 0 mm 2 mps 758 mmHg 87%
07:00 +10°C° 0 mm 2 mps 758 mmHg 81%
08:00 +12°C° 0 mm 2 mps 758 mmHg 75%
09:00 +14°C° 0 mm 2 mps 758 mmHg 68%
10:00 +15°C° 0 mm 2 mps 758 mmHg 64%
11:00 +16°C° 0 mm 2 mps 758 mmHg 60%
12:00 +17°C° 0 mm 2 mps 758 mmHg 55%
13:00 +17°C° 0 mm 2 mps 758 mmHg 56%
14:00 +18°C° 0 mm 1 mps 758 mmHg 56%
15:00 +18°C° 0 mm 1 mps 758 mmHg 57%
16:00 +16°C° 0 mm 1 mps 757 mmHg 61%
17:00 +14°C° 0 mm 1 mps 757 mmHg 66%
18:00 +12°C° 0 mm 1 mps 757 mmHg 71%
19:00 +12°C° 0 mm 1 mps 757 mmHg 72%
20:00 +12°C° 0 mm 1 mps 757 mmHg 72%
21:00 +11°C° 0 mm 1 mps 757 mmHg 73%
22:00 +10°C° 0 mm 0 mps 757 mmHg 72%
23:00 +10°C° 0 mm 0 mps 757 mmHg 72%

2 October, Friday

Time Temperature Precipitation Wind Pressure Humidity
00:00 +10°C° 0 mm 0 mps 757 mmHg 72%
01:00 +10°C° 0 mm 0 mps 757 mmHg 72%
02:00 +9°C° 0 mm 0 mps 757 mmHg 73%
03:00 +9°C° 0 mm 0 mps 757 mmHg 73%
04:00 +9°C° 0 mm 0 mps 757 mmHg 75%
05:00 +9°C° 0 mm 0 mps 757 mmHg 76%
06:00 +8°C° 0 mm 0 mps 757 mmHg 77%
07:00 +10°C° 0 mm 0 mps 757 mmHg 72%
08:00 +11°C° 0 mm 0 mps 757 mmHg 67%
09:00 +13°C° 0 mm 0 mps 757 mmHg 62%
10:00 +15°C° 0 mm 1 mps 757 mmHg 59%
11:00 +16°C° 0 mm 1 mps 757 mmHg 55%
12:00 +18°C° 0 mm 1 mps 757 mmHg 52%
13:00 +18°C° 0 mm 1 mps 757 mmHg 53%
14:00 +18°C° 0 mm 1 mps 757 mmHg 53%
15:00 +19°C° 0 mm 1 mps 757 mmHg 54%
16:00 +16°C° 0 mm 1 mps 756 mmHg 60%
17:00 +14°C° 0 mm 1 mps 756 mmHg 65%
18:00 +13°C° 0 mm 1 mps 756 mmHg 71%
19:00 +12°C° 0 mm 1 mps 756 mmHg 74%
20:00 +12°C° 0 mm 1 mps 756 mmHg 77%
21:00 +11°C° 0 mm 1 mps 756 mmHg 80%
22:00 +11°C° 0 mm 1 mps 756 mmHg 82%
23:00 +10°C° 0 mm 1 mps 756 mmHg 84%

3 October, Saturday

Time Temperature Precipitation Wind Pressure Humidity
00:00 +10°C° 0 mm 1 mps 756 mmHg 86%
01:00 +10°C° 0 mm 1 mps 756 mmHg 87%
02:00 +9°C° 0 mm 1 mps 756 mmHg 88%
03:00 +9°C° 0 mm 1 mps 756 mmHg 89%
04:00 +9°C° 0 mm 1 mps 756 mmHg 89%
05:00 +8°C° 0 mm 1 mps 756 mmHg 90%
06:00 +8°C° 0 mm 1 mps 756 mmHg 91%
07:00 +10°C° 0 mm 1 mps 756 mmHg 86%
08:00 +10°C° 0 mm 2 mps 756 mmHg 81%
09:00 +13°C° 0 mm 2 mps 756 mmHg 76%
10:00 +14°C° 0 mm 2 mps 756 mmHg 72%
11:00 +15°C° 0 mm 2 mps 756 mmHg 68%
12:00 +16°C° 0 mm 2 mps 756 mmHg 63%
13:00 +16°C° 0 mm 2 mps 756 mmHg 64%
14:00 +16°C° 0 mm 2 mps 756 mmHg 64%
15:00 +16°C° 0 mm 2 mps 756 mmHg 64%
16:00 +14°C° 0 mm 2 mps 756 mmHg 69%
17:00 +13°C° 0 mm 2 mps 756 mmHg 75%
18:00 +12°C° 0 mm 2 mps 756 mmHg 81%
19:00 +10°C° 0 mm 2 mps 756 mmHg 82%
20:00 +9°C° 0 mm 2 mps 756 mmHg 84%
21:00 +9°C° 0 mm 2 mps 756 mmHg 85%
22:00 +8°C° 0 mm 2 mps 757 mmHg 87%
23:00 +8°C° 0 mm 2 mps 757 mmHg 90%

4 October, Sunday

Time Temperature Precipitation Wind Pressure Humidity
00:00 +7°C° 0 mm 2 mps 757 mmHg 92%
01:00 +7°C° 0 mm 2 mps 757 mmHg 93%
02:00 +7°C° 0 mm 2 mps 757 mmHg 94%
03:00 +6°C° 0 mm 2 mps 757 mmHg 95%
04:00 +6°C° 0 mm 2 mps 757 mmHg 96%
05:00 +6°C° 0 mm 2 mps 757 mmHg 97%
06:00 +5°C° 0 mm 2 mps 757 mmHg 97%
07:00 +5°C° 0 mm 3 mps 757 mmHg 93%
08:00 +7°C° 0 mm 3 mps 758 mmHg 89%
09:00 +8°C° 0 mm 3 mps 758 mmHg 85%
10:00 +9°C° 0 mm 3 mps 758 mmHg 78%
11:00 +10°C° 0 mm 3 mps 758 mmHg 71%
12:00 +11°C° 0 mm 3 mps 758 mmHg 64%
13:00 +11°C° 0 mm 3 mps 758 mmHg 62%
14:00 +11°C° 0 mm 3 mps 758 mmHg 59%
15:00 +11°C° 0 mm 3 mps 758 mmHg 57%
16:00 +9°C° 0 mm 3 mps 758 mmHg 61%
17:00 +8°C° 0 mm 3 mps 758 mmHg 64%
18:00 +5°C° 0 mm 3 mps 758 mmHg 68%
19:00 +4°C° 0 mm 3 mps 758 mmHg 71%
20:00 +4°C° 0 mm 3 mps 758 mmHg 75%
21:00 +4°C° 0 mm 2 mps 759 mmHg 78%
22:00 +4°C° 0 mm 2 mps 759 mmHg 82%
23:00 +3°C° 0 mm 2 mps 759 mmHg 86%
Show more